This is the latest recevied weather packets stored in our database for station/object W7MKM-13. If no packets are shown the sender has not sent any weather packets the latest 10 day(s).
| Time | Temp. | Humidity | Pressure | Rain* | Wind** | Luminosity | Snow |
|---|---|---|---|---|---|---|---|
| 1777169116 | 15° C | 32% | 1004.2 hPa | 0 mm | - | 12 W/m² | - |
| 1777166416 | 15.56° C | 30% | 1003.8 hPa | 0 mm | - | 98 W/m² | - |
| 1777165515 | 16.11° C | 29% | 1004.3 hPa | 0 mm | - | 152 W/m² | - |
| 1777163715 | 16.67° C | 27% | 1004.4 hPa | 0 mm | - | 195 W/m² | - |
| 1777161615 | 17.22° C | 24% | 1004.9 hPa | 0 mm | - | 275 W/m² | - |
| 1777160115 | 17.22° C | 24% | 1005.2 hPa | 0 mm | - | 355 W/m² | - |
| 1777155916 | 17.22° C | 25% | 1006.8 hPa | 0 mm | - | 546 W/m² | - |
| 1777155615 | 17.22° C | 25% | 1006.8 hPa | 0 mm | - | 575 W/m² | - |
| 1777155315 | 17.22° C | 24% | 1006.9 hPa | 0 mm | - | 570 W/m² | - |
| 1777154415 | 16.67° C | 25% | 1007.1 hPa | 0 mm | - | 615 W/m² | - |
| 1777152616 | 16.67° C | 24% | 1007.7 hPa | 0 mm | - | 651 W/m² | - |
| 1777152015 | 16.67° C | 25% | 1008.2 hPa | 0 mm | - | 784 W/m² | - |
| 1777150515 | 16.11° C | 26% | 1008.2 hPa | 0 mm | - | 872 W/m² | - |
| 1777149316 | 15.56° C | 27% | 1008.5 hPa | 0 mm | - | 720 W/m² | - |
| 1777149015 | 15.56° C | 27% | 1008.5 hPa | 0 mm | - | 677 W/m² | - |
| 1777148416 | 15.56° C | 26% | 1008.7 hPa | 0 mm | - | 435 W/m² | - |
| 1777147215 | 15.56° C | 26% | 1009 hPa | 0 mm | - | 986 W/m² | - |
| 1777146015 | 14.44° C | 27% | 1009.1 hPa | 0 mm | - | 892 W/m² | - |
| 1777143615 | 13.89° C | 30% | 1009.9 hPa | 0 mm | - | 1023 W/m² | - |
| 1777141815 | 13.33° C | 28% | 1010.4 hPa | 0 mm | - | 884 W/m² | - |
| 1777140316 | 12.78° C | 27% | 1010.6 hPa | 0 mm | - | 889 W/m² | - |
| 1777138515 | 12.22° C | 29% | 1010.9 hPa | 0 mm | - | 902 W/m² | - |
| 1777136715 | 11.67° C | 27% | 1011.1 hPa | 0 mm | - | 521 W/m² | - |
| 1777134915 | 11.11° C | 29% | 1011.2 hPa | 0 mm | - | 832 W/m² | - |
| 1777134316 | 10.56° C | 32% | 1011.3 hPa | 0 mm | - | 957 W/m² | - |
* Rain latest hour (hover to see other rain measurements)
** Current wind speed in m/s (hover to see current wind gust speed)